{"data":{"norad_id":82500,"intl_designator":"","name":"UNKNOWN","alt_names":[],"object_type":"UNKNOWN","status":"UNKNOWN","operator":null,"country":null,"launch_date":null,"launch_site_code":null,"launch_vehicle":null,"mission":null,"orbit_class":"UNKNOWN","rcs_meters":null,"size_class":null,"mass_kg":null,"dimensions":null,"purposes":[],"wikipedia_slug":null,"has_3d_model":false,"image_url":null,"decayed_at":null,"tle_current":{"epoch":"2026-09-17T00:58:00.463296Z","epoch_age_seconds":317218,"freshness":"STALE","line1":"1 82500U          26260.04028314  .00003014  00000+0  13313-2 0  9993","line2":"2 82500  70.9644 133.8613 0119520  50.3009 310.8580 14.20285156658443","mean_motion":14.20285156,"eccentricity":0.011952,"inclination_deg":70.9644,"raan_deg":133.8613,"arg_perigee_deg":50.3009,"mean_anomaly_deg":310.858,"bstar":0.0013313,"rev_number":65844,"period_min":101.38809054764,"perigee_km":738.30399272989,"apogee_km":910.473164157,"semimajor_km":7202.5255784434,"source":"CELESTRAK","updated_at":"2026-09-20T09:00:32.435929Z"}}}